Location: Besigheim
(48.9980°N, 9.1427°E)
Time: 16:16:00
(UTC+00:00)

SL-24 R/B - RUBIN 2 - Pass Details

Date: 17 February 2026
Orbit: 603 x 984 km, 64.6° (Epoch: 8 March)

Event Time Altitude Azimuth Distance (km) Brightness Sun altitude
Exits shadow 05:14:33 - 322° (NW) 2,206 6.0 -12.7°
Reaches altitude 10° 05:15:47 10° 336° (NNW) 2,003 5.9 -12.5°
Maximum altitude 05:17:08 11° 353° (N) 1,912 6.0 -12.3°
Drops below altitude 10° 05:18:28 10° 11° (N) 1,976 6.2 -12.1°
Sets 05:22:26 0° 48° (NE) 2,862 7.7 -11.5°
